Location: Katherine
(14.4670°S, 132.2670°E)
Time: 22:49:01
(UTC+09:30)

ISS - Pass Details

Date: 28 March 2017
Orbit: 399 x 409 km, 51.6° (Epoch: 29 March)

Event Time Altitude Azimuth Distance (km) Brightness Sun altitude
Rises 05:51:31 0° 350° (N) 2,315 -0.1 -14.0°
Reaches altitude 10° 05:54:00 10° 9° (N) 1,461 -0.9 -13.4°
Maximum altitude 05:56:23 19° 56° (NE) 1,051 -1.0 -12.8°
Drops below altitude 10° 05:58:47 10° 103° (ESE) 1,470 0.4 -12.2°
Sets 06:01:17 0° 121° (ESE) 2,335 1.1 -11.6°
